Location: Fisheating Creek Campgrounds
(26.9333°N, 81.3167°W)
Time: 18:31:53
(UTC-04:00)

Daily predictions for brighter satellites

Satellite Brightness Start Highest point End
(mag) Time Altitude Azimuth Time Altitude Azimuth Time Altitude Azimuth
H-2A R/B 2.7 20:41:12 10° SSE 20:44:57 82° E 20:48:48 10° N
Cosmos 2082 4.0 20:43:38 10° SSW 20:49:13 74° WNW 20:54:50 10° NNE
Cosmos 1934 Rocket 4.2 20:44:50 10° N 20:50:47 53° E 20:56:39 10° SSE
Cosmos 1184 Rocket 3.7 20:50:48 10° SSE 20:53:45 30° E 20:56:44 10° NNE
Cosmos 2297 Rocket 2.6 20:48:15 10° SSW 20:53:51 71° WNW 20:59:30 10° NNE
Cosmos 1378 4.0 20:53:45 10° SSW 20:57:26 55° W 21:01:08 10° N
ATLAS 2AS CENTAUR R/B 3.9 20:50:30 10° NW 20:57:46 46° WSW 21:04:24 10° S
CZ-3A R/B 3.5 20:51:55 10° SW 20:59:24 18° S 21:02:34 10° SE
ASTEX 1 4.0 20:56:03 10° S 21:00:51 60° W 21:05:42 10° NNW
Cosmos 1741 Rocket 4.3 20:56:48 10° S 21:01:50 45° ESE 21:06:53 10° NNE
Cosmos 1842 Rocket 4.2 20:59:02 10° NNE 21:03:02 35° E 21:07:00 10° SSE
SEDSat Delta rocket 3.0 20:59:06 10° WNW 21:03:52 84° SSW 21:07:45 12° ESE
Cosmos 1605 Rocket 4.4 20:59:01 10° N 21:05:03 47° E 21:11:07 10° SSE
ATLAS 5 CENTAUR R/B 1.9 21:02:28 10° SSW 21:06:59 74° WNW 21:11:46 10° NNE
Spot 2 Rocket 3.5 21:02:40 10° SSE 21:07:41 75° ENE 21:12:44 10° N
Cosmos-2242 3.7 21:08:49 10° NNW 21:13:01 57° W 21:17:13 10° S
Cosmos 1727 Rocket 4.0 21:10:57 10° S 21:17:11 72° E 21:23:29 10° N
Cosmos 1241 Rocket 4.5 21:11:49 10° NNW 21:18:11 85° ENE 21:24:02 12° SSE
Cosmos 1980 3.7 21:15:22 10° NNW 21:21:04 84° ENE 21:26:31 11° SSE
Skynet4D Del rocket 3.8 21:18:09 10° W 21:23:48 78° S 21:28:56 16° ESE
Cosmos 2098 Rocket 4.4 21:16:15 10° N 21:23:53 82° E 21:30:54 10° S
Cosmos 1939 Rocket 3.2 21:24:43 18° SE 21:27:21 46° ENE 21:31:13 10° N
Palapa 6 Rocket 3.6 21:22:44 10° W 21:28:18 54° S 21:31:18 21° ESE
Aureole 2 Rocket 3.1 21:24:43 10° NNW 21:28:35 60° WSW 21:31:52 12° S
Cosmos 1340 Rocket 2.8 21:24:57 10° S 21:28:56 83° W 21:32:59 10° N
OAO 3 Rocket 4.1 21:26:09 10° W 21:30:23 34° SSW 21:33:13 18° SSE
Cosmos 2237 Rocket 2.2 21:25:14 10° NNW 21:30:52 86° WSW 21:35:49 14° SSE
CZ-4B DEB 3.7 21:30:53 25° E 21:31:25 27° ENE 21:33:59 10° NNE
Envisat 2.9 21:27:35 12° SSE 21:32:19 77° ENE 21:37:23 10° N
Cosmos 2221 3.3 21:32:56 10° NNE 21:36:57 34° E 21:38:33 26° ESE
Cosmos 1674 2.9 21:38:07 25° SSE 21:39:59 48° E 21:43:37 10° NNE
Meteor 1-29 2.9 21:38:58 10° N 21:42:24 83° WNW 21:45:46 11° SSW
Okean 3 Rocket 3.5 21:39:16 10° S 21:43:46 82° E 21:48:15 10° N
SAR-Lupe-4 4.0 21:43:00 34° ESE 21:44:01 44° ENE 21:47:26 10° N
CZ-3B R/B 4.4 21:44:41 10° WSW 21:46:47 37° NW 21:51:23 10° NNE
GPS 2-05 Rocket1 3.3 21:46:16 10° W 21:49:16 51° NNW 21:51:24 17° NE
Abrixas 3.5 21:49:00 10° SW 21:50:28 28° SW 21:50:28 28° SW
Lacrosse 5 4.3 21:52:20 10° NNE 21:52:49 10° NE 21:53:18 10° NE
H-2A R/B 4.0 21:35:44 10° WNW 21:53:09 27° WSW 21:57:03 14° S
USA 32 4.5 21:48:07 10° SSW 21:53:18 63° W 21:58:30 10° N
SL-16 R/B 2.3 21:50:19 10° N 21:55:54 60° ENE 21:58:21 33° SE
Cosmos 1766 Rocket 3.8 21:54:51 38° SE 21:55:55 47° E 22:00:05 10° NNE
Cosmos 1908 3.7 21:52:27 10° NNE 21:56:06 39° E 21:56:19 39° E
KORONAS-FOTON 3.9 21:56:38 47° SE 21:57:11 53° E 22:00:52 10° NNE
Cosmos 1570 Rocket 4.3 21:54:27 10° N 21:59:35 50° ENE 22:01:16 36° ESE
Atlas Centaur 2 1.0 21:55:59 10° WNW 21:59:39 70° NNE 22:00:27 49° ENE
Cosmos 375 4.4 21:57:00 10° NNW 22:01:41 79° WSW 22:02:55 44° SSE
SAR-Lupe-1 3.9 22:03:17 62° SE 22:03:45 75° ENE 22:07:19 10° N
Cosmos 1242 Rocket 2.9 22:03:52 10° N 22:07:16 49° ENE 22:07:16 49° ENE
Resurs 01 Rocket 4.3 22:10:16 10° SW 22:12:29 14° W 22:14:43 10° WNW
Helios 1A 4.0 22:11:39 24° SSW 22:13:43 42° W 22:17:40 10° NNW
Milstar 3 Cent rocket 3.5 22:09:48 10° W 22:16:55 77° SSW 22:25:01 28° ESE
NOAA 11 4.1 22:16:47 46° SE 22:18:17 67° ENE 22:23:39 10° N
USA 234 3.5 22:13:44 10° NE 22:20:15 72° NW 22:26:44 10° SW
ERS-1 Rocket 2.8 22:21:46 53° SSE 22:23:00 86° ENE 22:28:03 10° NNW
Terra 4.1 22:24:01 11° ENE 22:24:01 11° ENE 22:24:49 10° NE
H-2A ROCKET BODY 1.7 22:25:58 10° WSW 22:28:54 74° SSE 22:39:08 10° ENE
Cosmos 1459 Rocket 3.9 22:23:46 10° N 22:30:02 86° W 22:32:18 42° S
Sakura Rocket 4.2 22:24:12 10° W 22:32:37 77° N 22:35:22 37° E
Cosmos 2100 Rocket 4.2 22:29:36 10° N 22:35:54 71° W 22:38:36 36° SSW
MetOp-B 4.0 22:35:14 64° SSE 22:36:05 86° ENE 22:41:27 10° NNW
Nimbus 7 Rocket 4.3 22:30:13 10° NNE 22:36:13 73° ESE 22:37:30 55° SSE
Cosmos 2123 Rocket 3.8 22:36:04 50° S 22:37:48 82° E 22:44:00 10° N
H-2A R/B 2.6 22:39:05 43° ENE 22:39:05 43° ENE 22:43:58 10° N
Cosmos 220 Rocket 4.2 22:39:19 66° WSW 22:39:37 68° WNW 22:44:00 10° N
Cosmos 2061 Rocket 4.1 22:36:43 10° N 22:43:05 75° W 22:45:14 44° SSW
Cosmos 2173 Rocket 4.3 22:39:35 10° NNW 22:45:42 63° W 22:47:55 39° SSW
Cosmos 2263 Rocket 2.1 22:46:57 67° ENE 22:46:57 67° ENE 22:52:03 10° NNE
SL-14 R/B 4.4 22:53:30 42° NNW 22:53:30 42° NNW 22:56:18 10° N
Cosmos 1726 3.8 22:50:08 10° N 22:52:04 29° N 22:52:04 29° N
EO 1 Delta rocket 4.2 22:55:37 60° NNE 22:55:37 60° NNE 22:59:25 10° N
Cosmos 1818 4.0 22:49:37 10° NW 22:54:52 52° WSW 22:55:10 51° SW
Cosmos 1300 4.5 22:53:43 10° N 22:55:37 28° N 22:55:37 28° N
RESURS DK-1 3.8 22:54:23 10° N 22:56:54 34° N 22:56:54 34° N
Meteor 2-2 Rocket 4.2 23:01:46 10° N 23:07:37 81° W 23:07:37 81° W
Cosmos 1725 Rocket 3.8 23:02:57 10° N 23:09:12 86° W 23:09:19 85° SW
Cosmos 1603 4.1 23:17:37 10° NNW 23:22:24 59° WNW 23:22:24 59° WNW
CZ-4C R/B 4.3 23:28:14 15° NE 23:28:14 15° NE 23:29:13 10° NE
ARGOS 4.2 23:24:14 38° W 23:24:14 38° W 23:29:09 10° NNW
SPOT 5 4.2 23:26:16 34° WNW 23:26:16 34° WNW 23:30:02 10° NNW
Cosmos 371 Rocket 4.5 23:22:44 10° NNW 23:25:49 40° NNW 23:25:49 40° NNW
Lacrosse 5 3.1 23:31:23 10° NNW 23:34:30 38° NNW 23:34:30 38° NNW
Cosmos 1943 4.0 23:32:43 10° NNW 23:36:46 48° N 23:36:46 48° N
H-2A R/B 4.4 23:51:01 21° NNW 23:51:01 21° NNW 23:52:25 10° NNW
